Lynchburg, VA

6:00 AM EST on November 15, 2019 (GMT -0500)
Lynchburg Regional-Glenn

Weather History for KLYH - October, 2019

Change the Weather History Date:

Wednesday, October 23, 2019

  Actual Average Record
Temperature  
Mean Temperature 53 °F 54 °F  
Max Temperature 68 °F 67 °F 84 °F (1935)
Min Temperature 37 °F 42 °F 23 °F (1997)
Degree Days  
Heating Degree Days 12 11  
Month to date heating degree days 122 187  
Since 1 July heating degree days 127 248  
Cooling Degree Days 0 0  
Month to date cooling degree days 60 11  
Year to date cooling degree days 1574 1027  
Growing Degree Days 2 (Base 50)    
Moisture  
Dew Point 41 °F    
Average Humidity 63    
Maximum Humidity 100    
Minimum Humidity 26    
Precipitation  
Precipitation 0.00 in 0.10 in 2.21 in (1971)
Month to date precipitation 3.88 2.28  
Year to date precipitation 31.63 34.09  
Snow  
Snow 0.00 in - - ()
Month to date snowfall 0.0  
Since 1 July snowfall 0.0  
Since 1 September snowfall 0.0  
Snow Depth 0.00 in    
Sea Level Pressure  
Sea Level Pressure 30.05 in    
Wind  
Wind Speed 4 mph (West)    
Max Wind Speed 13 mph    
Max Gust Speed 21 mph    
Visibility 7 miles    
Events Fog    
T = Trace of Precipitation, MM = Missing Value Source: NWS Daily Summary

Daily Weather History Graph

Daily Weather History Graph

Search for Another Location

Airport or City:

Astronomy

Oct. 23, 2019 Rise Set
Actual Time 7:32 AM EDT 6:29 PM EDT
Civil Twilight 7:05 AM EDT 6:56 PM EDT
Nautical Twilight 6:35 AM EDT 7:26 PM EDT
Astronomical Twilight 6:04 AM EDT 7:56 PM EDT
Moon 1:58 AM EDT (10/23) 4:10 PM EDT (10/23)
Length of Visible Light 11h 50m
Length of Day
10h 57m
Waning Crescent, 27% of the Moon is Illuminated
Oct 23
Waning Crescent
Oct 27
New
Nov 4
First Quarter
Nov 12
Full
Nov 19
Last Quarter

Hourly Weather History & Observations

Time (EDT) Temp. Windchill Dew Point Humidity Pressure Visibility Wind Dir Wind Speed Gust Speed Precip Events Conditions
12:06 AM 46.9 °F - 46.9 °F 100% 29.91 in 1.0 mi Calm Calm - N/A   Mist
12:15 AM 48.9 °F - 48.9 °F 100% 29.91 in 1.5 mi Calm Calm - N/A   Partly Cloudy
12:21 AM 46.9 °F - 46.9 °F 100% 29.91 in 1.0 mi Calm Calm - N/A   Mist
12:27 AM 46.0 °F - 45.0 °F 96% 29.91 in 0.8 mi Calm Calm - N/A   Clear
12:38 AM 46.0 °F - 45.0 °F 96% 29.91 in 0.5 mi Calm Calm - N/A Fog Fog
12:45 AM 46.0 °F - 46.0 °F 100% 29.91 in 1.0 mi Calm Calm - N/A   Mist
12:47 AM 46.0 °F 44.8 °F 46.0 °F 100% 29.91 in 2.0 mi West 3.5 mph - N/A   Partly Cloudy
12:54 AM 48.9 °F - 48.0 °F 97% 29.91 in 10.0 mi West 3.5 mph - N/A   Clear
1:39 AM 46.0 °F - 46.0 °F 100% 29.93 in 1.5 mi Calm Calm - N/A   Clear
1:46 AM 45.0 °F - 44.1 °F 97% 29.93 in 1.0 mi Calm Calm - N/A   Clear
1:54 AM 46.9 °F - 46.0 °F 97% 29.93 in 2.5 mi West 3.5 mph - N/A   Clear
2:01 AM 46.9 °F - 46.9 °F 100% 29.94 in 10.0 mi Calm Calm - N/A   Clear
2:54 AM 48.9 °F - 46.9 °F 93% 29.95 in 10.0 mi West 4.6 mph - N/A   Clear
3:54 AM 45.0 °F - 44.1 °F 97% 29.96 in 10.0 mi Calm Calm - N/A   Clear
5:28 AM 42.1 °F - 41.0 °F 96% 30.00 in 1.5 mi Calm Calm - N/A   Clear
5:38 AM 42.1 °F - 41.0 °F 96% 30.01 in 4.0 mi Calm Calm - N/A   Clear
5:54 AM 41.0 °F - 39.9 °F 96% 30.02 in 10.0 mi Calm Calm - N/A   Clear
6:54 AM 41.0 °F - 39.9 °F 96% 30.04 in 10.0 mi Calm Calm - N/A   Clear
7:54 AM 39.9 °F 37.8 °F 39.9 °F 100% 30.06 in 10.0 mi Variable 3.5 mph - N/A   Clear
8:54 AM 52.0 °F - 43.0 °F 71% 30.09 in 10.0 mi West 5.8 mph - N/A   Clear
9:54 AM 55.9 °F - 44.1 °F 64% 30.11 in 10.0 mi SW 4.6 mph - N/A   Clear
10:54 AM 60.1 °F - 39.9 °F 47% 30.12 in 10.0 mi WNW 9.2 mph - N/A   Clear
11:54 AM 61.0 °F - 35.1 °F 38% 30.12 in 10.0 mi Variable 6.9 mph 18.4 mph N/A   Clear
1:54 PM 64.9 °F - 33.1 °F 31% 30.10 in 10.0 mi West 10.4 mph - N/A   Clear
2:54 PM 66.0 °F - 32.0 °F 28% 30.11 in 10.0 mi Variable 6.9 mph - N/A   Clear
3:54 PM 66.9 °F - 30.9 °F 26% 30.12 in 10.0 mi Variable 5.8 mph - N/A   Clear
4:54 PM 64.9 °F - 32.0 °F 29% 30.14 in 10.0 mi Variable 4.6 mph - N/A   Clear
5:54 PM 61.0 °F - 33.1 °F 35% 30.14 in 10.0 mi WSW 3.5 mph - N/A   Clear
6:54 PM 53.1 °F - 39.0 °F 59% 30.17 in 10.0 mi Calm Calm - N/A   Clear
7:54 PM 46.9 °F - 39.0 °F 74% 30.21 in 10.0 mi Calm Calm - N/A   Clear
8:54 PM 45.0 °F 43.5 °F 39.9 °F 82% 30.22 in 10.0 mi WNW 3.5 mph - N/A   Clear
9:54 PM 43.0 °F - 39.0 °F 86% 30.23 in 10.0 mi Calm Calm - N/A   Clear
10:54 PM 42.1 °F - 39.0 °F 89% 30.24 in 10.0 mi Calm Calm - N/A   Clear
11:54 PM 39.9 °F - 37.9 °F 93% 30.24 in 10.0 mi Calm Calm - N/A   Clear